COSMOS 2251 DEB, 33760

Orbit data source: Space-Track

COSMOS 2251 DEB, 33760 is space debris in LEO originally from a launch on Wed, 16 Jun 1993 UTC launched from the Plesetsk Missile And Space Complex (PKMTR). The debris from Iridium 33, an American commercial communications satellite, has been tracked extensively since its accidental collision with the defunct Russian satellite Cosmos 2251 in 2009. This event, occurring at high speed in low Earth orbit (LEO), generated thousands of pieces of space debris, significantly increasing the risk of further collisions. The Iridium 33 debris cloud has impacted space traffic management and orbital debris mitigation strategies, making it a subject of ongoing study in space situational awareness.

Loading next visibility...
Identifier
33760, 1993-036H
Orbit
LEO
Country
Flag of CISCIS
Related business
Manufacturer
Unknown
Mission
Spacecraft
Bus & Motor
Unknown
Mass
Unknown
Launch date (UTC)
1993-06-16 (33 years ago)
Launch vehicle
Unknown
Launch site
Plesetsk Missile And Space Complex (PKMTR)
Object type
Payload
Rocket body
Debris
Shape & HBR
Unknown shape, 0.2 m
Radar Cross Section
Medium (>0.1 m² and <1 m²)

Expand to show TLE details & history
Last TLE update: 15 hours ago

TLE from 15 hours ago
0 COSMOS 2251 DEB
1 33760U 93036H   26037.80501110  .00000434  00000-0  15906-3 0  9999
2 33760  74.0317 178.5587 0021532 267.1189 208.6857 14.35716677889290
Epoch: 2026-02-06T19:19Z
TLE epoch observation values (Epoch: 2026-02-06T19:19:12.959Z)
Latitude
60.1488°
Longitude
-97.91591°
Altitude
796.085 km
Speed
7.454 km/s
True Right ascension
21h 55m 18s
True Declination
60° 00' 03"
Sunlit
Object was in daylight at epoch
Visualization orbit readout
Latitude
Unknown
Longitude
Unknown
Altitude
Unknown
Speed
Unknown
Apparent Right ascension
Unknown
Apparent Declination
Unknown
Sunlit
N/A
Visualization observer readout
Local Sidereal Time
12:21:06
Azimuth
Unknown
Elevation
Unknown
Doppler factor
Unknown
Orbital elements
Apogee altitude
785.702 km
Perigee altitude
754.918 km
Semi-major axis
7,148.447 km
Eccentricity
0.00215
Inclination
74.0317°
RAAN
178.5587°
Arg. of periapsis
267.1189°
True anomaly
208.56754°
Mean anomaly
208.6857°
Eccentric anomaly
208.62659°
Mean motion
3.59108 °/min
Orbital period
100.25 mins
BSTAR
0.00015906
Loading maneuver chart data...
Computing Atmospheric mass density...

Documentation

Showing up to 5 results
|